EW3205 Weather Reports


time (UTC)temp
F
wind
direction
speed
knots
gust
knots
rain 1hr
in
rain 24hr
in
rain mn
in
humidity
%
barometer
mb
20260903213054 58 219 2.6 6.1 0.11 0.24 0.24 94 1002.8
20260903211556 58 96 0.0 2.6 0.06 0.20 0.20 94 1002.9
20260903210101 58 66 0.9 2.6 0.01 0.14 0.14 94 1002.8
20260903204551 58 89 0.9 3.5 0.00 0.13 0.13 94 1003.0
20260903203049 58 107 0.9 2.6 0.00 0.13 0.13 94 1003.2
20260903201549 58 63 0.0 1.7 0.00 0.13 0.13 94 1003.3
20260903200048 58 63 0.0 1.7 0.01 0.13 0.13 94 1003.4
20260903194547 58 53 0.9 2.6 0.02 0.13 0.13 94 1003.4
20260903193047 58 60 0.0 1.7 0.02 0.13 0.13 94 1003.5
20260903191552 58 75 0.9 3.5 0.02 0.13 0.13 93 1003.6
20260903190044 59 50 0.0 2.6 0.02 0.13 0.13 93 1003.7
20260903184552 59 35 0.0 0.9 0.02 0.12 0.12 93 1003.8
20260903183045 59 42 0.0 1.7 0.02 0.12 0.12 93 1003.8
20260903181542 59 36 0.0 2.6 0.02 0.11 0.11 93 1003.9
20260903180049 59 9 0.9 2.6 0.02 0.11 0.11 93 1004.0
20260903174541 59 15 0.9 2.6 0.01 0.10 0.10 93 1004.0
20260903173040 59 33 0.9 2.6 0.01 0.10 0.10 92 1004.1
20260903171540 59 38 0.0 3.5 0.00 0.09 0.09 92 1004.0
20260903170039 59 61 0.9 2.6 0.00 0.09 0.09 92 1004.0
20260903164538 59 20 0.9 3.5 0.00 0.09 0.09 92 1004.1
20260903163041 59 79 0.0 1.7 0.00 0.09 0.09 92 1004.2
20260903161542 59 121 0.9 2.6 0.01 0.09 0.09 92 1004.3
20260903160033 59 99 0.9 3.5 0.02 0.09 0.09 92 1004.4
20260903154531 59 123 0.9 3.5 0.05 0.09 0.09 93 1004.8
20260903153031 59 148 0.0 2.6 0.06 0.09 0.09 92 1004.8
20260903151529 59 104 1.7 5.2 0.07 0.09 0.09 92 1005.0
20260903150031 59 111 0.0 2.6 0.07 0.07 0.07 92 1005.1
20260903144527 60 109 1.7 2.6 0.05 0.05 0.05 91 1005.2
20260903143046 59 141 3.5 7.0 0.03 0.03 0.03 91 1005.3
20260903141523 60 131 2.6 7.0 0.02 0.02 0.02 90 1005.5
20260903140026 60 130 2.6 7.0 0.00 0.00 0.00 88 1005.8
20260903134523 61 171 2.6 7.0 0.00 0.00 0.00 84 1006.0
20260903133020 61 177 2.6 7.8 0.00 0.00 0.00 81 1006.1
20260903131517 61 194 4.3 8.7 0.00 0.00 0.00 81 1006.2
20260903130016 61 190 4.3 8.7 0.00 0.00 0.00 80 1006.2
20260903124515 61 81 3.5 7.8 0.00 0.00 0.00 79 1006.3
20260903123015 61 188 6.1 11.3 0.00 0.00 0.00 78 1006.5
20260903121514 61 202 3.5 8.7 0.00 0.00 0.00 78 1006.5
20260903120010 61 150 3.5 7.0 0.00 0.00 0.00 78 1006.8
20260903114507 61 146 2.6 9.6 0.00 0.00 0.00 79 1007.2
20260903113010 61 194 2.6 7.0 0.00 0.00 0.00 79 1007.5
20260903111505 61 195 2.6 7.0 0.00 0.00 0.00 80 1007.7
20260903110002 60 191 3.5 8.7 0.00 0.00 0.00 79 1007.8
20260903104502 60 184 3.5 6.1 0.00 0.00 0.00 77 1008.0
20260903103002 60 186 3.5 6.1 0.00 0.00 0.00 75 1008.0
20260903101500 61 225 4.3 7.8 0.00 0.00 0.00 75 1008.0
20260903100058 61 163 3.5 10.4 0.00 0.00 0.00 76 1008.3
20260903094606 59 200 2.6 8.7 0.00 0.00 0.00 78 1008.4
20260903093106 59 212 4.3 7.8 0.00 0.00 0.00 76 1008.6
20260903091554 59 206 4.3 11.3 0.00 0.00 0.00 76 1008.9
20260903090052 59 4 1.7 7.8 0.00 0.00 0.00 77 1008.8
20260903084550 59 181 2.6 7.8 0.00 0.00 0.00 77 1008.9
20260903083054 58 183 4.3 9.6 0.00 0.00 0.00 78 1009.1
20260903081549 59 184 5.2 14.8 0.00 0.00 0.00 77 1009.2
20260903080046 59 175 4.3 10.4 0.00 0.00 0.00 76 1009.3
20260903074543 59 201 6.1 9.6 0.00 0.00 0.00 75 1009.5
20260903073042 58 212 6.1 9.6 0.00 0.00 0.00 75 1009.5
20260903071542 58 229 8.7 13.0 0.00 0.00 0.00 74 1009.6
20260903070039 58 204 6.1 12.2 0.00 0.00 0.00 74 1009.5
20260903064541 58 221 4.3 11.3 0.00 0.00 0.00 73 1009.5
20260903063034 58 219 8.7 13.9 0.00 0.00 0.00 73 1009.6
20260903061532 58 227 5.2 8.7 0.00 0.00 0.00 74 1009.6
20260903060030 57 263 4.3 7.8 0.00 0.00 0.00 75 1009.7
20260903054529 57 256 3.5 7.8 0.00 0.00 0.00 76 1009.8
20260903053026 56 229 2.6 7.8 0.00 0.00 0.00 76 1009.9
20260903051525 56 238 4.3 10.4 0.00 0.00 0.00 76 1009.9
20260903050023 55 231 4.3 7.8 0.00 0.00 0.00 77 1010.0
20260903044521 55 4 3.5 7.8 0.00 0.00 0.00 77 1010.1
20260903043019 55 264 1.7 4.3 0.00 0.00 0.00 78 1010.1
20260903041518 55 271 2.6 7.8 0.00 0.00 0.00 76 1010.2
20260903040017 55 234 1.7 7.0 0.00 0.00 0.00 75 1010.4
20260903034517 55 4 3.5 9.6 0.00 0.00 0.00 73 1010.3
20260903033016 55 240 3.5 10.4 0.00 0.00 0.00 72 1010.4
20260903031512 55 264 5.2 14.8 0.00 0.00 0.00 71 1010.5
20260903030012 55 214 3.5 8.7 0.00 0.00 0.00 71 1010.6
20260903024509 55 233 6.1 13.0 0.00 0.00 0.00 71 1010.6
20260903023009 55 238 3.5 13.0 0.00 0.00 0.00 69 1010.6
20260903021509 55 251 6.1 11.3 0.00 0.00 0.00 69 1010.7
20260903020006 55 238 5.2 12.2 0.00 0.00 0.00 69 1010.8
20260903014501 56 240 4.3 13.0 0.00 0.00 0.00 70 1010.9
20260903013101 56 218 4.3 12.2 0.00 0.00 0.00 71 1011.0
20260903011604 56 223 5.2 13.9 0.00 0.00 0.00 69 1011.0
20260903010057 56 243 7.0 17.4 0.00 0.00 0.00 69 1011.0
20260903004556 56 286 5.2 13.9 0.00 0.00 0.00 70 1011.1
20260903003054 56 266 7.8 13.0 0.00 0.00 0.00 69 1011.1
20260903001553 56 271 6.1 13.0 0.00 0.00 0.00 69 1011.1
20260903000052 56 258 4.3 17.4 0.00 0.00 0.00 70 1011.2
20260902234603 56 240 5.2 14.8 0.00 0.00 0.00 70 1011.2
20260902233051 56 246 5.2 13.9 0.00 0.00 0.00 70 1011.2
20260902231549 56 224 5.2 16.5 0.00 0.00 0.00 70 1011.1
20260902230049 57 251 8.7 20.9 0.00 0.00 0.00 69 1011.2
20260902224544 57 271 5.2 12.2 0.00 0.00 0.00 70 1011.3
20260902223043 57 277 5.2 20.0 0.00 0.00 0.00 69 1011.5
20260902221541 57 281 6.1 18.2 0.00 0.00 0.00 69 1011.4
20260902220040 57 233 7.0 14.8 0.00 0.00 0.00 70 1011.4
20260902214536 57 248 6.1 13.9 0.00 0.00 0.00 71 1011.4